Regional Weather Roundup
Issued by NWS Wakefield, VA

Home | Current Version | Previous Version | Graphics & Text | Print | Product List | Glossary On
Versions: 1 2 3 4 5 6 7 8 9 10 11 12 13 14 15 16 17 18 19 20 21 22 23 24 25 26 27 28 29 30 31 32 33 34 35 36 37 38 39 40 41 42 43 44 45 46 47 48 49 50
000
ASUS41 KAKQ 240610
RWRAKQ

REGIONAL WEATHER ROUNDUP
NATIONAL WEATHER SERVICE WAKEFIELD VA
200 AM EDT THU JUL 24 2014

Note: "fair" indicates few or no clouds below 12,000 feet with no
significant weather and/or obstructions to visibility. * = Denotes
station may not report precipitation (e.g., rain,snow,etc.),
thunder or fog.

VAZ042-051-052>054-056-240700-
NORTHERN VIRGINIA

CITY           SKY/WX    TMP DP  RH WIND       PRES   REMARKS
WASH NATIONAL  MOCLDY    79  69  71 N7        29.87R
DULLES         CLOUDY    76  68  76 NW7       29.87S
FORT BELVOIR   CLOUDY    73  72  94 CALM      29.86S FOG
QUANTICO       CLOUDY    75  70  84 NW5       29.86S
FREDERICKSBRG* CLOUDY    76  72  85 CALM      29.86S
STAFFORD*      NOT AVBL
WARRENTON      NOT AVBL
CULPEPER*      NOT AVBL
MANASSAS*      CLOUDY    73  73 100 CALM      29.87S
LEESBURG*      CLOUDY    75  73  94 N6        29.89S
WINCHESTER     NOT AVBL
$$

VAZ048-049-060>072-079>083-240700-
CENTRAL AND SOUTH CENTRAL VIRGINIA...AND NORTH CENTRAL NORTH CAROLINA

CITY           SKY/WX    TMP DP  RH WIND       PRES   REMARKS
RICHMOND       CLOUDY    81  69  67 N3        29.86F
CHESTERFIELD*  MOCLDY    79  64  61 SW5       29.88F
HANOVER        PTCLDY    75  68  78 CALM      29.88S
TAPPAHANNOCK*  PTCLDY    73  70  88 CALM      29.87S
CHARLOTTSVILLE CLOUDY    72  71  97 W3        29.90F FOG
ORANGE*        NOT AVBL
LOUISA*        NOT AVBL
FARMVILLE*     NOT AVBL
SOUTH HILL*    NOT AVBL
ROANOKE RAPIDS PTCLDY    75  72  88 SW6       29.89F
RALEIGH        PTCLDY    76  71  85 SW8       29.92F
$$

VAZ088>098-240700-
SOUTHEAST VIRGINIA

CITY           SKY/WX    TMP DP  RH WIND       PRES   REMARKS
NORFOLK        PTCLDY    79  74  84 SW14      29.86F
VIRGINIA BEACH PTCLDY    78  75  90 SW12      29.86F
NORFOLK NAVAL  MOCLDY    80  74  81 SW9       29.87F
WEST POINT*    NOT AVBL
NEWPORT NEWS   PTCLDY    84  73  69 SW9       29.85F
LANGLEY AFB    MOCLDY    80  76  86 SW13      29.85F
FORT EUSTIS    PTCLDY    81  73  77 SW6       29.84S
WILLIAMSBURG*  NOT AVBL
FRANKLIN*      NOT AVBL
WAKEFIELD      CLOUDY    79  72  79 SW5       29.86F
$$

VAZ020-022-025-037-045-240700-
WESTERN AND SOUTHWEST VIRGINIA

CITY           SKY/WX    TMP DP  RH WIND       PRES   REMARKS
STAUNTON*      NOT AVBL
HOT SPRINGS VA LGT RAIN  62  60  94 N6        30.11F
LYNCHBURG      CLOUDY    75  69  81 CALM      29.92F
DANVILLE       MOCLDY    75  71  87 NW5       29.92S
MARTINSVILLE   CLOUDY    71  69  95 CALM      29.96F
ROANOKE        CLOUDY    79  66  65 N7        29.97R
BLACKSBURG     NOT AVBL
DUBLIN*        NOT AVBL
MARION*        NOT AVBL
HILLSVILLE*    NOT AVBL
RICHLANDS*     CLOUDY    72  68  88 W5        30.07F
WISE*          LGT RAIN  66  66 100 CALM      30.09F
ABINGDON*      NOT AVBL
$$

MDZ021>025-VAZ099-100-240700-
SOUTHERN MARYLAND AND THE DELMARVA PENINSULA

CITY           SKY/WX    TMP DP  RH WIND       PRES   REMARKS
PATUXENT RIVER MOCLDY    75  71  87 SW6       29.83F
BAY BRIDGE APT   N/A     75  72  88 CALM      29.84F
LEONARDTOWN    MOCLDY    73  70  88 W3        29.86F
DOVER          MOCLDY    71  71 100 N3        29.81F
GEORGETOWN     LGT RAIN  73  70  90 E7        29.82F
EASTON         PTCLDY    74  74 100 CALM      29.87F
CAMBRIDGE      MOCLDY    73  70  88 CALM      29.83F
SALISBURY      NOT AVBL
OCEAN CITY     CLOUDY    75  72  90 CALM      29.83F
WALLOPS ISLAND MOCLDY    79  73  82 NW3       29.84R
ACCOMACK*      NOT AVBL
$$

NCZ012>017-030>032-240700-
EASTERN NORTH CAROLINA

CITY           SKY/WX    TMP DP  RH WIND       PRES   REMARKS
ELIZABETH CITY CLEAR     77  75  93 SW10      29.89F
AHOSKIE*       PTCLDY    75  72  89 CALM      29.89F
EDENTON*       NOT AVBL
CURRITUCK*     CLEAR     79  74  86 SW5       29.89S
KILL DEVIL HLS NOT AVBL
MANTEO         NOT AVBL
CAPE HATTERAS  PTCLDY    79  77  94 SW10      29.92F
GOLDSBORO      PTCLDY    76  76  98 S3        29.91F
WASHINGTON     PTCLDY    75  73  93 SW6       29.92F
GREENVILLE     CLEAR     77  75  94 SW8       29.93F
NEW BERN       CLEAR     78  73  84 SW8       29.94F
WILMINGTON     PTCLDY    78  75  90 SW5       29.96S
$$

VAZ048-240700-
ELSEWHERE

CITY           SKY/WX    TMP DP  RH WIND       PRES   REMARKS
HARRISBURG PA  CLOUDY    75  64  68 N7        29.87S
BALTIMORE      MOCLDY    73  72  96 CALM      29.85S
ANNAPOLIS      PTCLDY    77  72  84 NW3       29.84S
ANDREWS AFB    MOCLDY    76  70  82 NW3       29.86S
WILMINGTON DE  PTCLDY    72  70  93 CALM      29.86S
PHILADELPHIA   CLOUDY    75  67  76 N3        29.86R
WILDWOOD NJ*   CLOUDY    72  68  88 CALM      29.83F
ATLANTIC CITY  CLOUDY    72  68  87 N6        29.83F
GREENSBORO     PTCLDY    73  69  87 SW7       29.93F
ROCKY MOUNT    CLEAR     77  74  90 SW8       29.91F
FAYETTEVILLE   CLEAR     77  74  90 SW8       29.94S
CHARLOTTE      PTCLDY    72  69  90 CALM      29.96F
$$

VAZ100-240700-
MARINE

STATION/POSITION TIME  TEMP    WIND        PRES    WAVE   SWELL
                       AIR SEA DIR/SP/G            HT/PER HT/PER
                 (UTC) (F)     (DEG/KT/KT) (MB)    (FT/S) (FT/S)
44066 TX TWR #4  0600   75 74  230/ 14/ 16 1008.8F   3/ 4   2/ 8
CAPE MAY NJ      0500   71 77   CALM  /  1 1009.3F
LEWES DE         0500   72 70  270/  1/  2 1009.6F
15NM E FENWICK I 0600   74 76              1010.3F   3/ 5
OCEAN-CITY-INLET 0500   74 72  350/  7/  9 1009.6F
WACHAPREAGUE VA  0500   80 84  240/  4/  5 1010.3F
THOMAS POINT MD  0500   77 79  220/  2/  2 1011.2S
GOOSES REEF MD   0600   79     320/ 10/ 10 1010.9F
COVE POINT MD    0500   76     280/  6/  9 1010.4R
SOLOMONS ISLAND  0500      82                N/A
BISHOPS HEAD MD  0500   74 82  240/  3/  5 1009.7F
PINEY POINT MD   0500          300/  3/  4   N/A
POTOMAC MD       0600   78     280/  2/  4 1009.9S
CAMBRIDGE MD     0500   74 80   CALM  /  1 1010.3R
LEWISETTA VA     0500   78 80  280/  3/  3 1010.6F
RAPPAHANNOCK LGT 0500          280/ 11/ 12 1011.3R
STINGRAY PT      0600   82     260/  8/ 12 1011.4F
YORK RVR RNG VA  0500   82     250/ 13/ 15 1010.1F
YORKTOWN VA      0500   81 80  230/  8/ 10 1010.5F
JAMESTOWN VA     0600   78     260/  8/ 10   N/A
DOMINION TERM VA 0500   80     230/ 12/ 17 1011.1F
KIPTOPEKE VA     0500      81  240/ 11/ 13   N/A
CHES BAY BRIDGE  0500   80 77  210/ 14/ 17 1010.3F
CAPE HENRY VA    0500   80     210/ 10/ 13 1009.9F
WILLOUBY STN VA  0500          250/ 10/ 11 1010.4F
S CRANEY ISL VA  0500          210/  7/ 12 1011.3F
CAPE HENRY BUOY  0500      78                N/A     2/ 4
1ST LANDING BUOY 0600   80     230/ 14/ 16 1010.7S
CAPE CHARLES BUO 0600      76                N/A     2/ 8
OFFSHORE WE BUOY 0500      78                N/A     3/ 5
64NM E OF VA BCH 0600   79 79  220/ 14/ 17 1011.0F   4/ 6   2/ 9
DUCK PIER NC     0500   80 74  230/ 14/ 19 1011.4F
44056 DUCK FRF   0500                        N/A     2/10
OREGON INLET NC  0500   80 84  220/ 15/ 18 1012.5F
HATTERAS NC      0500   78 82  230/  9/ 12 1013.9F
DIAMOND SHLS NC  0600          VRB 17/ 19  1013.2F   5/ 4   2/ 8
CAPE LOOKOUT NC  0500   80     230/ 12/ 16 1014.3R
$$


USA.gov is the U.S. government's official web portal to all federal, state and local government web resources and services.